Location: Obersdorf
(47.4079°N, 10.2781°E)
Time: 23:03:18
(UTC+01:00)

First-Move - Visible Passes

Search period start: 05 December 2021 00:00
Search period end: 15 December 2021 00:00
Orbit: 575 x 664 km, 97.6° (Epoch: 05 December)

Date Brightness Start Highest point End Pass type
(mag) Time Alt. Az. Time Alt. Az. Time Alt. Az.
05 Dec ? 05:05:21 10° N 05:06:16 16° N 05:06:16 16° N visible
06 Dec ? 05:22:41 10° N 05:23:32 15° N 05:23:32 15° N visible
07 Dec ? 05:40:07 10° N 05:40:49 14° N 05:40:49 14° N visible
08 Dec ? 05:57:39 10° N 05:58:05 12° NNW 05:58:05 12° NNW visible
08 Dec ? 16:55:51 10° SW 16:59:10 21° W 17:02:33 10° NW visible
09 Dec ? 06:15:20 10° NNW 06:15:22 10° NNW 06:15:22 10° NNW visible
09 Dec ? 17:14:09 10° WSW 17:16:36 15° W 17:19:05 10° NW visible
10 Dec ? 04:55:27 10° NNE 04:55:30 10° NNE 04:55:30 10° NNE visible
11 Dec ? 05:12:44 10° N 05:12:48 10° N 05:12:48 10° N visible
14 Dec ? 17:03:28 10° SW 17:06:31 18° W 17:09:39 10° NW visible
